Worthington, MN

12:00 AM CST on December 11, 2019 (GMT -0600)
Worthington Municipal

Weather History for KOTG - October, 2019

Change the Weather History Date:

Monday, October 21, 2019

  Actual Average Record
Temperature  
Mean Temperature 44 °F -  
Max Temperature 50 °F 53 °F 82 °F (1978)
Min Temperature 39 °F 35 °F 16 °F (1982)
Degree Days  
Heating Degree Days 20    
Moisture  
Dew Point 44 °F    
Average Humidity 93    
Maximum Humidity 100    
Minimum Humidity 82    
Precipitation  
Precipitation 1.42 in - - ()
Sea Level Pressure  
Sea Level Pressure 29.36 in    
Wind  
Wind Speed 14 mph (NNW)    
Max Wind Speed 36 mph    
Max Gust Speed 50 mph    
Visibility 8 miles    
Events Rain    
Averages and records for this station are not official NWS values.
T = Trace of Precipitation, MM = Missing Value Source: NWS Daily Summary

Daily Weather History Graph

Daily Weather History Graph

Search for Another Location

Airport or City:

Astronomy

Oct. 21, 2019 Rise Set
Actual Time 7:43 AM CDT 6:29 PM CDT
Civil Twilight 7:14 AM CDT 6:58 PM CDT
Nautical Twilight 6:41 AM CDT 7:31 PM CDT
Astronomical Twilight 6:07 AM CDT 8:05 PM CDT
Moon No Moon Rise 3:09 PM CDT (10/21)
Length of Visible Light 11h 44m
Length of Day
10h 45m
Waning Gibbous, 48% of the Moon is Illuminated
Oct 21
Waning Gibbous
Oct 27
New
Nov 4
First Quarter
Nov 12
Full
Nov 19
Last Quarter

Hourly Weather History & Observations

Time (CDT) Temp. Windchill Dew Point Humidity Pressure Visibility Wind Dir Wind Speed Gust Speed Precip Events Conditions
12:56 AM 50.0 °F - 45.0 °F 83% 29.57 in 10.0 mi ESE 15.0 mph 21.9 mph N/A   Overcast
1:15 AM 50.0 °F - 44.6 °F 82% 29.54 in 10.0 mi ESE 13.8 mph - N/A   Overcast
1:54 AM 48.2 °F - 44.6 °F 87% 29.52 in 10.0 mi ESE 13.8 mph - N/A   Overcast
1:56 AM 48.9 °F - 45.0 °F 86% 29.53 in 10.0 mi ESE 15.0 mph - N/A   Overcast
2:30 AM 48.2 °F - 44.6 °F 87% 29.50 in 10.0 mi ESE 12.7 mph - N/A   Overcast
2:56 AM 48.0 °F - 46.0 °F 93% 29.48 in 8.0 mi ESE 10.4 mph 20.7 mph 0.00 in Rain Light Rain
3:04 AM 48.2 °F - 46.4 °F 93% 29.46 in 9.0 mi ESE 17.3 mph 23.0 mph 0.01 in Rain Light Rain
3:44 AM 48.2 °F - 46.4 °F 93% 29.44 in 9.0 mi ESE 10.4 mph - 0.01 in Rain Light Rain
3:56 AM 48.0 °F - 46.9 °F 96% 29.44 in 8.0 mi ESE 10.4 mph - 0.02 in Rain Light Rain
4:56 AM 48.9 °F - 48.0 °F 97% 29.44 in 8.0 mi SE 11.5 mph - 0.02 in   Overcast
5:56 AM 48.9 °F - 48.0 °F 97% 29.42 in 9.0 mi SE 4.6 mph - N/A   Overcast
6:47 AM 48.2 °F - 48.2 °F 100% 29.37 in 3.0 mi NE 3.5 mph - 0.05 in Rain Light Rain
6:56 AM 48.9 °F - 48.0 °F 97% 29.38 in 4.0 mi North 4.6 mph - 0.06 in Rain Light Rain
7:16 AM 48.2 °F - 48.2 °F 100% 29.36 in 5.0 mi North 5.8 mph - 0.02 in Rain Light Rain
7:41 AM 48.2 °F - 48.2 °F 100% 29.35 in 4.0 mi NNW 8.1 mph - 0.10 in Rain Rain
7:56 AM 48.0 °F - 48.0 °F 100% 29.36 in 5.0 mi NW 9.2 mph - 0.18 in Rain Heavy Rain
8:18 AM 46.4 °F 41.1 °F 46.4 °F 100% 29.33 in 5.0 mi WNW 11.5 mph - 0.14 in Rain Rain
8:27 AM 46.4 °F 40.7 °F 44.6 °F 93% 29.33 in 5.0 mi NW 12.7 mph - 0.18 in Rain Rain
8:56 AM 46.0 °F 41.9 °F 44.1 °F 93% 29.36 in 9.0 mi NNW 8.1 mph - 0.28 in Rain Rain
9:56 AM 46.0 °F 41.0 °F 44.1 °F 93% 29.32 in 9.0 mi North 10.4 mph - 0.14 in Rain Light Rain
10:56 AM 46.0 °F 43.1 °F 45.0 °F 96% 29.28 in 10.0 mi NNE 5.8 mph - 0.03 in Rain Light Rain
11:27 AM 46.4 °F 42.4 °F 46.4 °F 100% 29.25 in 10.0 mi NNW 8.1 mph - 0.00 in   Overcast
11:38 AM 48.2 °F - 46.4 °F 93% 29.25 in 10.0 mi NNW 8.1 mph - 0.00 in   Overcast
11:56 AM 46.9 °F - 45.0 °F 93% 29.25 in 10.0 mi NW 11.5 mph - 0.00 in   Overcast
12:10 PM 46.4 °F 41.1 °F 44.6 °F 93% 29.24 in 10.0 mi WNW 11.5 mph - 0.00 in Rain Light Rain
12:33 PM 46.4 °F 40.7 °F 46.4 °F 100% 29.24 in 10.0 mi West 12.7 mph - 0.00 in Rain Light Rain
12:56 PM 46.9 °F - 46.0 °F 97% 29.25 in 6.0 mi West 12.7 mph - 0.03 in Rain Rain
1:26 PM 46.4 °F 40.7 °F 44.6 °F 93% 29.23 in 9.0 mi NNW 12.7 mph - 0.07 in Rain Rain
1:56 PM 46.0 °F 40.6 °F 44.1 °F 93% 29.26 in 8.0 mi NW 11.5 mph - 0.14 in Rain Rain
2:37 PM 44.6 °F 37.2 °F 41.0 °F 87% 29.24 in 10.0 mi NW 17.3 mph 24.2 mph 0.10 in Rain Light Rain
2:56 PM 43.0 °F 36.0 °F 41.0 °F 93% 29.26 in 10.0 mi NW 13.8 mph - 0.12 in Rain Light Rain
3:04 PM 42.8 °F 33.8 °F 41.0 °F 93% 29.24 in 10.0 mi NW 21.9 mph 27.6 mph 0.01 in Rain Light Rain
3:56 PM 39.9 °F 30.5 °F 37.9 °F 93% 29.30 in 8.0 mi NNW 19.6 mph 33.4 mph 0.08 in Rain Rain
4:10 PM 41.0 °F 30.5 °F 37.4 °F 87% 29.27 in 8.0 mi NNW 26.5 mph 36.8 mph 0.02 in Rain Light Rain
4:56 PM 41.0 °F 32.2 °F 39.0 °F 93% 29.31 in 10.0 mi NNW 18.4 mph 32.2 mph 0.10 in Rain Rain
5:28 PM 42.8 °F 32.7 °F 39.2 °F 87% 29.29 in 8.0 mi NW 27.6 mph 33.4 mph 0.04 in Rain Rain
5:40 PM 41.0 °F 29.1 °F 37.4 °F 87% 29.30 in 9.0 mi NW 34.5 mph 41.4 mph 0.05 in Rain Light Rain
5:56 PM 41.0 °F 30.2 °F 37.9 °F 89% 29.33 in 7.0 mi NW 27.6 mph 36.8 mph 0.07 in Rain Light Rain
6:31 PM 41.0 °F 30.2 °F 39.2 °F 93% 29.32 in 6.0 mi NW 27.6 mph 38.0 mph 0.04 in Rain Light Rain
6:56 PM 42.1 °F 32.1 °F 39.9 °F 92% 29.35 in 8.0 mi NW 25.3 mph 38.0 mph 0.07 in Rain Light Rain
7:56 PM 43.0 °F 32.0 °F 39.9 °F 89% 29.37 in 8.0 mi NW 33.4 mph 39.1 mph 0.02 in Rain Light Rain
8:56 PM 43.0 °F 32.4 °F 39.9 °F 89% 29.40 in 9.0 mi NW 31.1 mph 43.7 mph 0.03 in Rain Light Rain
9:56 PM 43.0 °F 31.7 °F 39.0 °F 86% 29.42 in 10.0 mi NW 35.7 mph 49.5 mph 0.01 in Rain Light Rain
10:56 PM 42.1 °F 30.8 °F 39.0 °F 89% 29.47 in 10.0 mi NW 33.4 mph 47.2 mph 0.00 in Rain Light Rain
11:56 PM 41.0 °F 29.7 °F 37.9 °F 89% 29.51 in 10.0 mi NW 31.1 mph 47.2 mph 0.02 in Rain Light Rain